Regional Weather Roundup
Issued by NWS

Home | Current Version | Previous Version | Graphics & Text | Print | Product List | Glossary Off
Versions: 1 2 3 4 5 6 7 8 9 10 11 12 13 14 15 16 17 18 19 20 21 22 23 24 25 26 27 28 29 30 31 32 33 34 35 36 37 38 39 40 41 42 43 44 45 46 47 48 49 50

000
ASUS43 KLSX 172357
RWRMO

WEATHER SUMMARY FOR MISSOURI
NATIONAL WEATHER SERVICE SPRINGFIELD MO
700 PM CDT TUE OCT 17 2017

NOTE: "FAIR" INDICATES FEW OR NO CLOUDS BELOW 12,000 FEET WITH NO
       SIGNIFICANT WEATHER AND/OR OBSTRUCTIONS TO VISIBILITY.
       CURRENT SKY AND/OR WEATHER CONDITIONS ARE NOT AVAILABLE FOR
       CHILLICOTHE AND FARMINGTON.

MOZ001>031-035>038-043-044-053-054-180100-
...NORTHERN AND WESTERN MISSOURI...

CITY           SKY/WX    TMP DP  RH WIND       PRES   REMARKS
KANSAS CTY INT PTCLDY    59  48  67 S9        30.07S
6HR MIN TEMP:  59; 6HR MAX TEMP:  72;

LEE`S SUMMIT   CLEAR     64  47  53 S10       30.10S
6HR MIN TEMP:  64; 6HR MAX TEMP:  71;

ST JOSEPH      CLEAR     65  48  54 S9        30.05S
6HR MIN TEMP:  65; 6HR MAX TEMP:  75;

CHILLICOTHE      N/A     64  46  52 S6        30.10R
6HR MIN TEMP:  64; 6HR MAX TEMP:  72;


$$
MOZ066>068-077>081-088>096-101>105-180100-
...SOUTHWEST MISSOURI...

CITY           SKY/WX    TMP DP  RH WIND       PRES   REMARKS
SPRINGFIELD    CLEAR     62  41  46 S6        30.16S
6HR MIN TEMP:  62; 6HR MAX TEMP:  71;

JOPLIN         CLEAR     60  46  59 S7        30.14F
6HR MIN TEMP:  60; 6HR MAX TEMP:  71;


$$
MOZ032>034-039>042-045>050-055>058-069>072-180100-
...CENTRAL MISSOURI...

CITY           SKY/WX    TMP DP  RH WIND       PRES   REMARKS
COLUMBIA       NOT AVBL
JEFFERSON CITY CLEAR     63  43  48 E5        30.15S
6HR MIN TEMP:  63; 6HR MAX TEMP:  71;

ROLLA          CLEAR     56  42  59 S8        30.18S
6HR MIN TEMP:  56; 6HR MAX TEMP:  69;

SEDALIA        CLEAR     59  48  67 S7        30.14S
6HR MIN TEMP:  59; 6HR MAX TEMP:  72;

WARRENSBURG    CLEAR     61  45  55 S5        30.11S

$$
MOZ051-052-059>065-180100-
...EAST CENTRAL MISSOURI...

CITY           SKY/WX    TMP DP  RH WIND       PRES   REMARKS
ST LOUIS INTL  PTCLDY    64  40  41 S8        30.19R
6HR MIN TEMP:  64; 6HR MAX TEMP:  70;


$$
MOZ072>076-082>087-097>100-106>115-180100-
...SOUTH CENTRAL AND SOUTHEAST MISSOURI...

CITY           SKY/WX    TMP DP  RH WIND       PRES   REMARKS
CAPE GIRARDEAU CLEAR     55  41  59 S5        30.22S
6HR MIN TEMP:  55; 6HR MAX TEMP:  69;

POPLAR BLUFF   CLEAR     55  45  68 CALM      30.22S
6HR MIN TEMP:  55; 6HR MAX TEMP:  69;

WEST PLAINS    CLEAR     58  38  47 SE3       30.21S
6HR MIN TEMP:  58; 6HR MAX TEMP:  69;


$$


USA.gov is the U.S. government's official web portal to all federal, state and local government web resources and services.